Simultaneous Nadir Overpasses (SNOs) Predictions

Prediction of SNOs between GOES-17 and NOAA-20 Satellite Orbit:

Table of predicted SNOs for the next 14.0 days since TLE Epoch: 4/20/2024
Index Date Time (GOES-17) GOES-17 Lat,Lon NOAA-20 Lat,Lon Distance(km) Time Diff (sec)
1 04/21/2024 08:34:27 0.00,-104.70 0.48,-106.88 247.61 80
2 04/22/2024 08:13:07 -0.00,-104.71 -0.54,-102.37 266.53 80
3 04/23/2024 20:35:10 0.00,-104.70 -0.69,-107.70 343.11 80
4 04/24/2024 20:19:11 0.01,-104.70 0.34,-103.20 170.95 80
5 04/26/2024 08:41:06 -0.01,-104.71 0.83,-108.50 432.00 80
6 04/27/2024 08:19:47 -0.02,-104.71 -0.20,-104.00 81.64 80
7 04/29/2024 20:23:10 0.02,-104.69 -0.03,-104.82 15.05 80
8 04/30/2024 20:07:10 0.01,-104.69 1.01,-100.31 498.99 80
9 05/02/2024 08:26:25 -0.01,-104.70 0.20,-105.61 103.99 80
10 05/03/2024 08:10:25 -0.01,-104.70 -0.85,-101.11 409.98 80
